Regional Weather Roundup
Issued by NWS Newport/Morehead, NC

Current Version | Previous Version | Graphics & Text | Print | Product List | Glossary On
Versions: 1 2 3 4 5 6 7 8 9 10 11 12 13 14 15 16 17 18 19 20 21 22 23 24 25 26 27 28 29 30 31 32 33 34 35 36 37 38 39 40 41 42 43 44 45 46 47 48 49 50
000 ASUS42 KMHX 251513 RWRMHX WEATHER ROUNDUP FOR EASTERN NORTH CAROLINA NATIONAL WEATHER SERVICE NEWPORT/MOREHEAD CITY NC 1000 AM EST SUN FEB 25 2018 NOTE: "FAIR" INDICATES FEW OR NO CLOUDS BELOW 12,000 FEET WITH NO SIGNIFICANT WEATHER AND/OR OBSTRUCTIONS TO VISIBILITY NCZ015>017-031-032-045>047-102-103-251600- NORTH COAST CITY SKY/WX TMP DP RH WIND PRES REMARKS EDENTON FAIR 73 65 76 SW14 30.06F ELIZABETH CITY FAIR 72 66 81 SW16G24 30.05F KITTY HAWK FAIR 71 65 81 SW12G23 30.06S MANTEO PTSUNNY 70 62 75 W20 30.08S $$ NCZ045>047-081-094-103-104-251600- CENTRAL COAST CITY SKY/WX TMP DP RH WIND PRES REMARKS FRISCO FAIR 70 64 81 SW10 30.12S $$ NCZ095-097-098-100-101-251600- SOUTHERN COAST CITY SKY/WX TMP DP RH WIND PRES REMARKS BEAUFORT FAIR 71 65 81 SW17G24 30.12S CEDAR ISLAND NOT AVBL JACKSONVILLE FAIR 77 64 64 SW10G16 30.10S PINEY ISLAND NOT AVBL WILMINGTON FAIR 76 62 62 SW14G23 30.11F $$ NCZ011>013-027>030-043-044-078>080-089-090>093-098-251600- COASTAL PLAIN CITY SKY/WX TMP DP RH WIND PRES REMARKS AHOSKIE FAIR 73 63 71 SW8 30.03S CLINTON FAIR 73 64 72 SW14G20 30.09F ELIZABETHTOWN NOT AVBL GOLDSBORO FAIR 74 62 66 SW16 30.05F GREENVILLE FAIR 73 61 64 SW15G22 30.08S HAVELOCK MOSUNNY 74 67 78 MISG 30.12S KENANSVILLE FAIR 73 63 68 SW10G22 30.10S KINSTON FAIR 75 63 64 SW20 30.08F NEW BERN FAIR 75 64 68 SW13G18 30.11S RICHLANDS FAIR 77 66 68 SW14 30.11S ROCKY MOUNT FAIR 72 61 68 SW14G22 30.06R WASHINGTON FAIR 74 64 69 SW15G21 30.08S WHITEVILLE PTSUNNY 74 63 67 SW9G17 30.11S $$ AMZ130-135-150-152-154-156-158-170-250-252-270-ANZ085-086-088-633-658-670-251600- MARINE OBSERVATIONS STATION/POSITION TIME TEMP WIND PRES WAVE SWELL AIR SEA DIR/SP/G HT/PER HT/PER (UTC) (F) (DEG/KT/KT) (MB) (FT/S) (FT/S) CHESAPEAKE LIGHT NOT AVBL 64 E VA BEACH 1450 56 50 210/ 16/ 17 1017.9 4/ 8 2/ 8 DUCK 1448 69 46 210/ 18/ 22 1017.2 2 E DUCK 1500 46 N/A 2/10 OREGON INLET 1436 63 57 200/ 16/ 18 1018.9 13E OREGON INLT 1448 49 N/A 4/10 2/10 HATTERAS CG 1436 67 61 220/ 9/ 13 1019.7 DIAMOND BUOY 1500 73 73 230/ 19/ 25 1020.4 CAPE LOOKOUT 1500 220/ 11/ 15 1020.5 BEAUFORT LAB 1436 68 60 220/ 7/ 12 1020.1 30 SE NEW RVR IN 1408 71 70 210/ 14/ 17 1020.4 30 SE NEW RVR IN 1500 70 N/A 5/10 2/11 27 SE WRIGHTSVLE 1408 70 69 220/ 14/ 19 1020.5 5 SE WRIGHTSVLE 1408 62 57 220/ 10/ 12 1020.0 225 S CAPE HAT 1450 72 71 190/ 14/ 16 1023.8 4/ 9 3/ 9 41 SE CHARLESTON 1500 71 69 220/ 14/ 17 1021.5 $$

USA.gov is the U.S. government's official web portal to all federal, state and local government web resources and services.